Location: *
(49.4547°N, 7.9131°E)
Time: 13:34:16
(UTC+00:00)

Cosmos 1939 Rocket - Pass Details

Date: 22 September 2019
Orbit: 534 x 583 km, 97.4° (Epoch: 20 October)

Event Time Altitude Azimuth Distance (km) Brightness Sun altitude
Rises 18:35:09 0° 176° (S) 2,674 6.1 -11.8°
Reaches altitude 10° 18:37:17 10° 181° (S) 1,786 5.3 -12.1°
Maximum altitude 18:41:04 55° 260° (W) 652 3.5 -12.7°
Drops below altitude 10° 18:44:54 10° 339° (NNW) 1,805 6.0 -13.3°
Sets 18:47:04 0° 344° (NNW) 2,706 6.8 -13.6°
